Tracking 19827 objects as of 21-Aug-2019
HD Live streaming from Space Station
objects crossing your sky now

GALILEO 20 (2C6)

Track GALILEO 20 (2C6) now!
GALILEO 20 (2C6) is classified as:


NORAD ID: 43056
Int'l Code: 2017-079B
Perigee: 23,213.1 km
Apogee: 23,245.4 km
Inclination: 56.5 °
Period: 844.7 minutes
Semi major axis: 29600 km
RCS: Unknown
Launch date: December 12, 2017
Source: European Space Agency (ESA)
Launch site: FRENCH GUIANA (FRGUI)
aabbcc
Your satellite tracking list
Your tracking list is empty




NASA's NSSDC Master Catalog

Two Line Element Set (TLE):
1 43056U 17079B   19232.32571537 -.00000001  00000-0  00000+0 0  9993
2 43056  56.5081 290.0806 0005457 247.1530 112.8720  1.70474459 10477
Source of the keplerian elements: AFSPC